Regional Weather Roundup
Issued by NWS

Home | Current Version | Previous Version | Text Only | Print | Product List | Glossary On
Versions: 1 2 3 4 5 6 7 8 9 10 11 12 13 14 15 16 17 18 19 20 21 22 23 24 25 26 27 28 29 30 31 32 33 34 35 36 37 38 39 40 41 42 43 44 45 46 47 48 49 50
000
ASUS43 KLMK 291202
RWRKY
KENTUCKY REGIONAL WEATHER ROUNDUP
NATIONAL WEATHER SERVICE LOUISVILLE KY
800 AM EDT WED MAR 29 2017

NOTE "FAIR" INDICATES FEW OR NO CLOUDS BELOW 12,000 FEET
WITH NO SIGNIFICANT WEATHER AND/OR OBSTRUCTIONS TO VISIBILITY.

KYZ001>023-026-027-061>063-070>075-291300-
WESTERN AND SOUTH CENTRAL KENTUCKY

CITY           SKY/WX    TMP DP  RH WIND       PRES   REMARKS
PADUCAH        CLEAR     53  49  86 E10       30.01R
HENDERSON      CLEAR     50  45  81 E8        30.06R
OWENSBORO        N/A    N/A N/A N/A MISG        N/A
HOPKINSVILLE   CLEAR     51  51 100 E7        30.03R
BOWLING GREEN  CLEAR     51  48  89 NE7       30.07R FOG
GLASGOW        NOT AVBL
$$

KYZ024-025-028>034-038-045-046-053-291300-
NORTH CENTRAL KENTUCKY

CITY           SKY/WX    TMP DP  RH WIND       PRES   REMARKS
LOUISVILLE/SDF CLOUDY    54  47  77 E10       30.11R
LOUISVILLE/LOU CLOUDY    54  47  77 E7        30.12R
FORT KNOX      PTCLDY    50  49  96 NE7       30.08S
$$

KYZ035>037-039>044-047>052-055>060-089>105-291300-
NORTHEAST KENTUCKY

CITY           SKY/WX    TMP DP  RH WIND       PRES   REMARKS
LEXINGTON      MOCLDY    49  45  86 NE13      30.12S
COVINGTON      CLOUDY    45  39  79 E13       30.16S
FRANKFORT      CLOUDY    51  44  77 NE8       30.11S
$$

KYZ054-064>069-076>088-106>120-291300-
SOUTHEAST KENTUCKY

CITY           SKY/WX    TMP DP  RH WIND       PRES   REMARKS
JACKSON        CLOUDY    52  49  89 CALM      30.12R
LONDON         CLOUDY    54  50  86 N7        30.09R
SOMERSET       NOT AVBL
MIDDLESBORO    CLOUDY    48  48 100 CALM      30.10R
MONTICELLO     CLOUDY    55  53  93 NW7       30.11R
$$





USA.gov is the U.S. government's official web portal to all federal, state and local government web resources and services.